05:58
Airports
History
Links
Donate
Help keep this website running!
PayPal
Bitcoin
This page is community maintained. The information is intended for PC simulator navigation or reference.
Always use approved charts for navigation.
SDBP
AEROPORTO ESTADUAL ARTHUR SIQUEIRA
AEROPORTO ESTADUAL ARTHUR SIQUEIRA (SDBP)
Bragança Paulista, São Paulo, Brazil (12916)
(U)
Lat/Lng:22° 58' 43.84" S / 46° 32' 13.66" W
-22.978845 / -46.537127
Elevation:2887'ft / 880mMSL
ID / ICAO:SDBP
Runways:1
Longest:16-34
Asphalt 1,191m / 3,907ft
Nearby Weather05:00 GMT 2017-11-20
Nearby weather at SBGR, Sao Paulo - Guarulhos located 31.6 nautical miles from SDBP
Altimeter: 29.94
Visibility: 6.2 statute miles
Wind: 2 knots (from 140°)
Temp: 19°c / 66°f
Humidity: 100.0%

METAR: SBGR 200500Z 14002KT 9999 BKN009 19/19 Q1014

(Powered by phpweather)
Airport Radio Frequencies
Tower: 126.72
Runway 16 / 34
Dimensions:1190.9 x 29.9m 3907' x 98'ft
Surface:Asphalt
Runway 16 [A]Runway 34 [B]
Heading:144°TH 324°TH
Lat:
Lng:
22° 58' 28.02"S
46° 32' 25.77"W
22° 58' 59.66"S
46° 32' 1.54"W
User Notes and Comments
22° 58' 43.84" S / 46° 32' 13.66" W
Distance To
Airport ID:
Nearby Airports
(U) Aeroporto Estadual Arthur Siqueira 0.0 NM
SBBP SW 226°
(U) Fazenda Vale Eldorado 6.4 NM
SDVH WSW 254°
4 Atibaia 10.6 NM
SDTB SSW 193°
(C) Jundiai 29.4 NM
SBJD WSW 241°
(C) Sao Paulo - Guarulhos 31.6 NM
SBGR ( WX ) S 171°
4 Monte Verde 32.8 NM
SNEJ ENE 75°
(U) Tres Marias 36.9 NM
SDWL WSW 246°
VFR Chart
Flight Planning at SkyVector.com